Regional Weather Roundup
Issued by NWS Portland, ME

Home | Current Version | Previous Version | Text Only | Print | Product List | Glossary On
Versions: 1 2 3 4 5 6 7 8 9 10 11 12 13 14 15 16 17 18 19 20 21 22 23 24 25 26 27 28 29 30 31 32 33 34 35 36 37 38 39 40 41 42 43 44 45 46 47 48 49 50
000
ASUS41 KGYX 270605
RWRGYX
WEATHER ROUNDUP FOR MAINE AND NEW HAMPSHIRE
NATIONAL WEATHER SERVICE GRAY ME
200 AM EDT WED JUL 27 2016

MEZ002-005-006-010-012-015-018-020-021-024-026-027-029-270700-
MAINE

CITY           SKY/WX    TMP DP  RH WIND       PRES   REMARKS
PORTLAND       CLEAR     68  61  78 NW6       29.88S
6HR MIN TEMP:  67; 6HR MAX TEMP:  82;

SANFORD          N/A     61  60  97 CALM      29.90R
BAR HARBOR     CLEAR     65  64  97 S3        29.85S
WISCASSET      PTCLDY    69  61  75 CALM      29.88S
6HR MIN TEMP:  67; 6HR MAX TEMP:  81;

ROCKLAND       PTCLDY    67  62  84 CALM      29.86S
FRYEBURG       NOT AVBL
LEWISTONAUBURN CLEAR     67  61  81 CALM      29.88F
AUGUSTA        CLEAR     69  61  75 NW6       29.87F
6HR MIN TEMP:  69; 6HR MAX TEMP:  80;

WATERVILLE     CLEAR     65  62  90 NW3       29.84F
BANGOR         PTCLDY    72  62  71 W6        29.85F
6HR MIN TEMP:  72; 6HR MAX TEMP:  82;

GREENVILLE       N/A     67  59  75 CALM      29.88F
6HR MIN TEMP:  66; 6HR MAX TEMP:  72;

MILLINOCKET    CLEAR     69  63  81 W3        29.85F
6HR MIN TEMP:  68; 6HR MAX TEMP:  78;

HOULTON        CLEAR     66  66 100 CALM      29.82S
6HR MIN TEMP:  61; 6HR MAX TEMP:  73;

PRESQUE ISLE   PTCLDY    62  62 100 CALM      29.83S
6HR MIN TEMP:  62; 6HR MAX TEMP:  72;

FRENCHVILLE    CLEAR     63  61  93 W5        29.82F
6HR MIN TEMP:  63; 6HR MAX TEMP:  71; 6HR PCP: TRACE;

CARIBOU        MOCLDY    65  63  93 CALM      29.82S
6HR MIN TEMP:  65; 6HR MAX TEMP:  72;

$$

NHZ002-005-008-009-011-012-014-270700-
NEW HAMPSHIRE

CITY           SKY/WX    TMP DP  RH WIND       PRES   REMARKS
PORTSMOUTH     CLEAR     68  61  77 W2        29.88S
ROCHESTER      CLEAR     67  59  75 NW6       29.89S
6HR MIN TEMP:  65; 6HR MAX TEMP:  79;

NASHUA         CLEAR     69  61  75 W6        29.91S
MANCHESTER     CLEAR     72  59  63 NW3       29.89F
6HR MIN TEMP:  71; 6HR MAX TEMP:  85;

CONCORD        CLEAR     65  57  75 VRB3      29.91S
6HR MIN TEMP:  65; 6HR MAX TEMP:  83;

LACONIA        CLEAR     63  60  90 CALM      29.92S
PLYMOUTH       FAIR      60  58  94 CALM      29.92S
BERLIN         CLEAR     56  53  90 CALM      29.94S
6HR MIN TEMP:  56; 6HR MAX TEMP:  73;

WHITEFIELD     CLEAR     57  54  89 CALM      29.94F
6HR MIN TEMP:  57; 6HR MAX TEMP:  74;

JAFFREY        CLEAR     62  58  86 S3        29.96S
6HR MIN TEMP:  62; 6HR MAX TEMP:  80;

KEENE          MOCLDY    63  60  90 CALM      29.96S
LEBANON        CLEAR     61  58  90 CALM      29.93F
6HR MIN TEMP:  60; 6HR MAX TEMP:  81;

MT WASHINGTON  FOG       48  48 100 NW24        N/A  VSB 1/8
6HR MIN TEMP:  48; 6HR MAX TEMP:  51;

$$

VTZ005-007-008-270700-
VERMONT

CITY           SKY/WX    TMP DP  RH WIND       PRES   REMARKS
ST JOHNSBURY     N/A     62  58  86 MISG      29.92S
MONTPELIER     FAIR      61  58  90 CALM      29.98F
BURLINGTON     FAIR      66  61  84 E3        29.91F
$$

MAZ007-012-024-CTZ003-RIZ002-NYZ038-NYZ072-270700-
SOUTHERN NEW ENGLAND AND NY

CITY           SKY/WX    TMP DP  RH WIND       PRES   REMARKS
BOSTON         CLEAR     78  59  51 NW8       29.89S
WORCESTER      CLEAR     70  57  63 W9        29.96R
NANTUCKET      MOCLDY    74  71  91 N10       29.86S
PROVIDENCE     PTCLDY    76  60  57 NW3       29.91S
HARTFORD       PTCLDY    72  61  68 NE3       29.92S
ALBANY         CLEAR     67  59  75 SW3       29.95R
NEW YORK CITY  MOCLDY    81  63  54 N7        29.92R
$$

ANZ081-ANZ082-ANZ150-NHZ014-MEZ023>029-270700-
COASTAL MARINE OBSERVATIONS

STATION/POSITION TIME  TEMP    WIND        PRES    WAVE
                       AIR SEA DIR/SP/G            HT/PER
                 (UTC) (F)     (DEG/KT/KT) (MB)    (FT/S)
MOUNT DESERT ROC 0600   69     310/ 10/ 12 1010.4F
MATINICUS ROCK   0500   68     310/ 13/ 13 1010.5R
ISLE OF SHOALS   0500   74     300/ 13/ 13 1011.4R
JEFFREYS LEDGE   0508      68                N/A     1/ 3
CASHES LEDGE BUO 0450   73 71  310/ 10/ 12 1011.0    1/ 7
GEORGES BANK BUO 0450   64 64              1009.9    3/ 6
$$

.............KEY..............
   WCI - WIND CHILL
   TC  - TEMPERATURE IN CELSIUS
   VSB - VISIBILITY IN MILES
   HX  - HEAT INDEX
   FAIR- INDICATES FEW OR NO CLOUDS BELOW 12,000 FT, WITH NO
         SIGNIFICANT WEATHER AND/OR OBSTRUCTIONS TO VISIBILITY.






USA.gov is the U.S. government's official web portal to all federal, state and local government web resources and services.